Tracking 19644 objects as of 25-Apr-2019
HD Live streaming from Space Station
objects crossing your sky now

THORAD AGENA D DEB

Track THORAD AGENA D DEB now!
10-day predictions


NORAD ID: 4773
Int'l Code: 1970-025DT
Perigee: 1,038.1 km
Apogee: 1,084.1 km
Inclination: 100.0 °
Period: 106.3 minutes
Semi major axis: 7432 km
RCS: 0.0892 m2 (small)
Launch date: April 8, 1970
Source: United States (US)
Launch site: AIR FORCE WESTERN TEST RANGE (AFWTR)

Note: This is SATELLITE DEBRIS
aabbcc
Your satellite tracking list
Your tracking list is empty




NASA's NSSDC Master Catalog

Two Line Element Set (TLE):
1  4773U 70025DT  19115.37148519  .00000161  00000-0  30047-3 0  9995
2  4773 100.0052  73.3979 0030936 230.2567 256.2637 13.54977993414855
Source of the keplerian elements: AFSPC